Theta_e
326 329 332 331 331 332 333 337 340 345 346 348 352 352 357 354 352 350 348 346 342 346 345 345 347 347 347 346 346 346 348 348 348 348 348 348 347 346 345 342 346 346 346 346
326 329 329 331 333 334 337 337 337 337 346 347 352 353 353 354 351 349 349 347 343 345 344 344 345 346 347 347 347 347 348 348 349 349 349 349 348 348 346 344 346 348 348 347
328 329 330 332 335 337 334 335 334 337 346 340 351 353 352 349 347 345 345 345 344 345 345 344 345 346 347 347 347 347 348 348 349 348 350 350 349 349 349 348 348 347 348 349
328 328 331 331 335 335 337 333 333 338 338 338 347 358 345 350 349 348 345 345 345 345 345 345 345 348 348 348 347 347 347 348 349 350 351 351 349 349 349 349 349 346 346 348
330 330 329 331 333 334 337 334 331 332 328 326 336 335 339 348 351 349 346 343 345 345 345 346 345 347 349 349 349 348 349 349 349 350 352 351 350 349 350 346 348 347 348 349
325 324 327 326 328 332 332 329 325 322 321 326 324 325 326 353 352 349 344 345 344 344 343 344 344 346 349 350 350 350 350 349 349 350 351 351 350 351 351 349 349 351 351 347
321 322 322 324 326 324 324 324 327 329 326 328 329 337 331 344 344 347 346 346 344 344 345 344 343 342 346 350 350 351 351 350 350 350 351 350 352 352 352 351 351 346 347 349
322 324 323 323 324 325 325 324 327 331 328 328 334 342 343 343 343 344 346 346 345 344 343 343 344 345 343 348 351 352 352 352 352 351 352 351 353 355 354 352 352 349 351 350
319 322 323 322 322 321 324 326 323 322 321 328 337 340 341 342 345 346 346 346 346 345 343 344 343 341 343 343 352 353 353 354 353 354 353 353 354 355 353 354 352 353 353 352
320 321 321 327 328 331 325 321 324 320 327 330 343 346 341 347 349 347 347 346 345 344 347 343 342 342 344 342 340 344 355 355 355 355 355 354 356 352 340 345 354 354 354 353
318 319 322 332 333 333 331 331 321 320 324 335 339 338 338 345 347 348 345 344 345 344 344 343 342 343 349 347 351 344 346 341 337 334 353 357 355 352 351 353 353 354 353 351
318 317 320 327 331 332 331 333 326 327 331 331 332 339 343 344 346 346 346 346 349 346 345 343 338 345 347 349 343 346 340 337 335 334 338 345 338 351 352 352 354 355 349 352
328 328 330 331 330 330 334 334 330 324 323 331 339 336 341 344 345 346 346 348 343 345 343 338 335 344 344 346 342 337 340 336 338 333 338 335 349 351 350 350 350 349 346 344
332 326 328 331 331 330 335 335 333 328 330 331 332 334 342 341 339 339 345 344 339 339 341 338 334 338 344 337 337 337 335 335 336 334 337 343 345 345 343 340 337 333 330 330
328 332 331 333 336 335 334 334 334 334 330 334 332 338 337 340 339 338 336 340 341 342 338 337 336 336 343 343 345 340 338 338 337 337 341 341 340 337 334 331 330 330 331 331
328 331 331 336 335 335 336 334 334 335 332 335 340 341 336 337 339 342 338 341 345 345 339 337 336 338 342 340 342 343 341 339 340 339 337 334 333 333 332 333 333 332 333 333
330 331 331 334 336 332 331 333 334 334 332 338 343 339 338 340 342 342 342 342 345 347 345 344 343 342 341 339 338 338 337 335 334 335 335 336 335 335 335 335 335 335 336 338
327 329 329 337 332 335 329 329 333 335 336 338 341 338 338 338 341 340 338 346 347 347 345 341 336 335 334 333 333 333 333 333 332 331 331 331 332 333 334 336 336 336 335 334
323 324 325 336 334 329 329 330 334 335 339 340 341 338 342 345 345 344 336 335 341 336 331 328 328 329 329 330 328 327 325 324 323 321 322 325 326 327 327 327 328 329 329 328
322 319 324 323 333 329 325 330 329 330 339 342 348 344 345 345 348 345 339 336 331 328 325 323 322 323 323 322 321 320 319 318 317 317 317 317 318 321 323 324 324 323 323 323
332 326 326 328 329 328 326 333 330 331 329 338 345 344 341 341 336 330 330 329 328 325 323 320 320 319 318 318 317 317 316 315 314 313 313 314 314 314 315 316 316 316 316 316
328 327 326 326 331 332 331 333 331 328 333 335 333 331 330 329 330 328 326 324 323 323 320 318 317 315 315 315 315 314 313 313 312 311 311 311 311 311 310 311 311 311 311 312
332 327 329 327 329 328 329 330 330 330 330 330 329 328 329 329 327 325 322 320 319 319 318 317 315 314 315 314 314 313 312 312 311 308 308 309 309 308 308 309 308 309 310 311
328 327 336 333 333 333 330 327 327 328 327 326 326 327 327 326 323 320 318 317 317 317 316 315 314 313 313 312 313 312 312 311 309 308 307 307 307 307 307 307 308 308 308 309
326 326 328 332 331 330 329 328 327 326 326 326 325 324 323 322 319 318 316 315 315 315 314 314 313 312 313 312 312 312 310 309 308 307 308 308 307 306 306 306 307 307 308 308
326 325 332 333 329 329 329 326 327 327 326 323 321 320 320 319 316 315 313 314 314 313 314 313 313 313 312 312 312 311 309 309 309 309 309 308 306 305 305 305 306 306 305 305
Wind_Speed
3 5 4 8 5 5 4 1 3 8 7 7 11 9 16 17 14 13 13 11 9 17 15 19 23 25 26 28 32 32 32 31 27 25 22 20 20 19 18 18 16 16 17 18
6 3 7 4 5 7 0 1 5 5 8 5 7 11 12 18 19 17 15 10 12 8 9 16 21 24 28 32 34 33 32 30 28 27 24 18 17 16 18 19 19 16 17 18
5 8 3 3 4 1 1 2 6 5 6 4 8 6 4 7 7 8 11 8 6 14 14 14 18 25 24 28 36 37 34 32 29 28 22 16 13 17 15 19 19 19 21 21
4 5 6 6 6 5 4 6 7 11 8 6 5 4 7 8 11 12 12 9 11 9 10 12 17 21 29 34 36 39 35 34 30 28 25 23 20 18 19 17 20 18 21 17
7 2 5 5 8 5 10 1 3 3 5 6 3 3 7 8 10 11 13 9 9 8 9 13 17 27 31 29 35 38 35 34 32 30 29 26 25 21 19 13 14 17 15 15
6 3 4 7 9 5 1 3 7 4 3 1 4 7 4 9 24 14 12 12 9 7 7 9 15 21 22 23 27 30 33 34 34 33 32 31 28 26 21 16 15 17 16 17
6 6 5 4 4 4 6 6 3 4 4 6 2 3 7 4 7 9 12 8 3 5 6 4 10 13 19 24 29 29 31 34 35 36 35 33 28 25 22 18 17 15 17 17
2 6 1 2 6 8 4 7 5 5 3 4 4 3 4 4 4 7 11 10 8 8 7 6 4 7 15 23 26 28 31 35 35 36 36 32 28 26 20 20 19 17 17 13
4 5 5 5 6 8 5 2 5 6 3 2 3 4 5 4 6 6 9 7 9 9 9 10 5 9 0 11 12 26 30 33 33 39 35 33 29 25 23 17 18 17 16 14
3 2 2 5 3 6 3 5 3 3 2 2 4 4 4 3 5 3 6 11 2 7 5 5 8 16 18 18 19 20 21 19 21 34 35 35 27 18 28 19 23 17 13 9
6 4 7 5 3 2 4 3 6 4 4 5 2 4 5 7 5 8 4 4 4 6 8 4 8 19 23 17 21 12 23 30 27 35 29 31 22 26 22 20 15 12 7 7
7 5 5 7 8 3 3 4 4 5 2 2 3 2 5 6 5 4 4 2 4 6 3 5 8 19 21 24 39 20 26 36 32 51 46 12 21 20 17 15 14 13 10 7
8 3 1 7 6 4 5 1 5 5 3 1 4 4 6 5 6 7 5 3 6 8 3 5 7 10 15 10 25 14 15 26 19 18 29 18 27 19 18 15 12 10 7 4
9 4 8 7 6 4 4 1 1 5 4 3 5 3 8 9 8 6 6 4 5 5 2 2 3 4 13 4 10 1 6 10 26 29 26 20 20 23 20 15 10 5 2 2
5 5 4 2 4 4 6 6 6 5 5 5 5 5 4 12 12 8 6 5 2 2 4 4 7 3 3 18 4 15 16 21 32 33 26 14 13 12 11 7 3 2 4 5
4 2 3 2 2 4 3 5 4 4 2 4 6 4 3 2 9 6 8 11 7 6 4 1 2 10 9 4 12 18 20 23 28 27 18 12 5 6 5 5 5 7 9 11
4 5 3 4 3 1 4 3 4 2 4 7 5 7 7 2 6 10 9 9 8 6 7 8 8 8 11 12 17 19 16 8 5 8 8 5 4 4 5 6 8 11 13 13
4 4 3 2 3 2 6 7 4 7 3 2 3 5 7 5 2 6 6 6 7 6 4 5 5 9 7 13 20 21 20 18 17 18 17 15 13 10 7 4 4 6 8 10
6 4 3 4 2 4 5 1 2 4 1 1 4 6 5 8 3 3 3 3 2 7 11 12 16 20 23 23 20 21 20 18 16 15 13 12 11 10 10 11 11 11 12 15
8 7 4 3 4 5 6 6 2 3 2 3 3 8 10 7 4 3 7 6 11 16 16 17 18 22 24 19 16 18 17 16 16 13 11 10 10 12 11 12 14 14 16 19
3 3 4 3 2 6 7 5 2 2 7 4 6 4 10 4 1 8 14 12 17 16 18 19 20 21 19 16 14 17 15 15 11 10 11 13 15 15 15 16 17 19 22 25
6 5 3 3 3 3 2 1 4 5 3 7 6 5 12 12 11 13 12 11 12 14 15 15 19 18 15 15 15 16 17 14 15 17 19 18 19 18 19 18 18 21 21 21
3 5 5 6 5 3 4 3 2 5 7 5 14 10 16 14 11 10 8 8 10 13 14 13 15 15 14 13 12 12 11 15 17 20 21 22 22 22 23 23 23 22 21 22
2 4 4 3 2 3 2 5 6 5 13 13 15 14 13 14 10 8 7 6 8 10 11 10 11 12 12 11 11 10 10 9 12 15 19 24 24 26 28 27 26 24 23 20
4 4 5 2 4 6 6 3 11 11 13 15 11 12 13 14 8 8 6 6 9 8 8 9 9 9 8 7 7 8 8 10 12 15 18 25 27 28 29 27 26 26 25 25
4 7 5 6 12 6 7 7 11 16 14 12 16 8 7 10 10 10 6 11 10 9 7 7 7 6 7 7 7 7 8 9 11 14 17 21 23 25 24 25 26 24 27 28
Wind_Direction
351 48 265 258 220 205 173 286 220 209 199 153 194 200 179 190 204 208 203 206 197 207 204 195 197 194 195 204 207 209 209 213 211 211 219 225 230 235 234 237 240 242 240 237
15 259 250 274 232 256 53 87 260 246 170 140 163 219 185 187 207 205 206 206 206 178 172 185 186 189 196 201 208 210 214 213 209 212 213 221 234 239 238 238 241 244 241 241
162 246 358 250 268 274 321 231 263 193 137 45 111 326 218 193 195 204 210 211 200 185 183 183 187 192 195 200 205 209 212 209 211 210 207 216 239 242 248 242 244 245 245 243
221 271 236 292 273 125 324 231 272 141 127 198 135 233 271 188 203 204 204 183 190 185 187 187 188 189 196 207 208 210 216 210 210 209 207 209 218 241 249 256 249 258 236 243
248 297 342 296 246 143 232 195 317 155 129 109 219 100 256 140 219 211 207 191 202 175 185 193 193 197 203 205 208 209 214 216 214 213 214 212 218 227 236 240 243 239 233 231
247 283 225 239 280 185 4 60 39 56 92 63 198 163 246 201 217 203 198 197 181 160 156 173 184 198 204 206 208 210 212 222 218 219 216 219 222 226 237 237 234 238 242 232
329 269 258 190 256 16 77 63 350 358 10 228 291 121 238 23 354 238 194 84 116 169 204 207 171 178 189 198 205 210 215 221 226 224 222 220 227 234 236 238 240 242 240 238
136 323 231 155 187 209 174 145 155 210 207 265 6 254 325 74 345 141 121 149 159 190 215 207 255 316 203 200 200 205 214 219 225 225 224 222 223 230 240 237 232 236 240 251
156 273 295 172 219 142 191 184 181 108 31 63 280 298 23 62 42 79 143 155 187 210 215 231 200 195 47 332 236 207 214 222 221 225 220 219 221 231 242 240 238 242 245 253
211 291 239 315 344 44 124 150 56 16 167 235 297 282 216 218 170 153 162 202 247 357 323 297 287 59 27 3 345 358 255 235 234 235 224 218 210 223 241 246 242 240 233 229
142 113 283 40 346 159 30 24 57 119 121 155 184 274 249 211 186 198 194 45 1 278 255 280 29 33 31 21 25 54 40 31 344 333 272 218 213 203 224 229 229 225 217 207
195 140 240 213 318 24 100 129 126 127 218 73 138 266 264 187 220 190 221 291 304 296 260 47 59 51 47 60 72 55 25 19 25 342 337 86 243 221 194 201 188 182 189 222
179 215 87 352 343 21 52 25 96 97 93 176 132 248 201 168 209 248 205 247 296 304 133 52 26 67 69 51 77 42 31 19 348 291 297 221 222 191 166 163 148 150 150 156
109 132 161 181 191 152 127 217 96 126 95 187 218 239 184 187 169 185 196 225 295 316 318 282 108 346 113 45 67 319 329 316 259 231 264 190 152 139 140 139 132 140 208 254
142 121 103 56 128 145 167 181 186 184 165 162 223 209 236 174 170 184 158 138 251 262 250 258 45 312 358 64 24 236 256 219 216 237 219 163 137 142 143 143 168 232 277 288
13 132 109 119 208 193 182 243 225 241 153 109 130 236 105 129 124 159 159 163 169 234 218 25 2 323 357 80 159 186 194 186 184 181 174 158 160 187 181 202 226 241 245 246
57 115 80 179 6 326 24 254 179 183 159 148 143 216 145 167 172 174 178 163 171 158 160 185 198 223 244 208 203 194 194 190 134 82 54 28 343 318 301 280 257 250 250 249
98 77 59 141 34 101 239 307 214 114 38 124 109 179 158 150 172 141 164 146 161 141 141 60 20 106 105 107 117 117 109 95 79 63 52 46 40 34 22 358 319 292 283 277
95 112 89 133 172 290 323 259 277 149 286 23 187 107 103 109 106 48 123 79 99 93 90 89 85 92 93 98 99 96 85 77 67 52 41 29 15 4 2 357 346 329 321 314
115 75 107 105 131 200 244 303 7 107 324 219 122 157 144 153 140 237 134 110 82 88 88 81 78 86 86 89 91 82 71 63 48 33 24 12 2 1 357 350 342 335 329 321
20 23 171 157 168 277 249 276 341 88 237 149 115 134 159 130 152 115 98 88 95 92 86 86 74 68 66 62 62 71 62 49 42 36 26 22 15 9 356 344 336 329 323 317
169 155 193 80 101 268 188 116 174 195 49 130 98 116 104 108 99 92 90 90 89 94 93 89 80 67 54 47 43 48 43 33 33 29 25 18 14 8 356 348 337 331 331 322
174 190 179 164 218 254 301 254 50 140 132 121 117 121 118 113 104 101 101 95 90 92 90 91 92 89 78 69 61 66 41 28 23 24 23 17 9 359 353 344 337 329 321 315
251 164 95 96 343 32 35 63 77 114 120 121 121 125 122 120 115 105 99 93 101 107 106 106 91 80 72 58 57 56 38 27 23 24 21 13 3 354 348 340 327 317 311 307
200 113 123 65 355 55 357 93 128 111 113 113 109 122 127 123 115 119 117 112 115 103 88 83 83 86 82 60 46 34 22 19 21 13 5 3 356 347 335 326 317 308 302 301
191 169 157 208 197 157 184 174 147 131 131 124 120 110 113 130 128 129 122 131 127 119 102 75 61 59 36 18 2 354 358 357 351 349 350 346 343 336 320 317 312 306 303 303